When you browse on this site, cookies collect data to enhance your experience and personalize the content and advertising you see.
Visit our Privacy Policy to learn more. By continuing to use the site, you agree to this use of cookies and data.

Hourly Weather Varzi-Omga

Today, 14 July, Tuesday

Time Temperature Precipitation Wind Pressure Humidity
00:00 +22°C° 0 mm 3 mps 747 mmHg 85%
01:00 +22°C° 0 mm 3 mps 747 mmHg 85%
02:00 +21°C° 0 mm 3 mps 747 mmHg 86%
03:00 +21°C° 0 mm 3 mps 747 mmHg 88%
04:00 +21°C° 0 mm 2 mps 747 mmHg 91%
05:00 +23°C° 0 mm 2 mps 747 mmHg 88%
06:00 +24°C° 0 mm 3 mps 747 mmHg 85%
07:00 +25°C° 0 mm 3 mps 747 mmHg 83%
08:00 +26°C° 0 mm 3 mps 747 mmHg 79%
09:00 +28°C° 0 mm 4 mps 747 mmHg 76%
10:00 +29°C° 0 mm 3 mps 748 mmHg 73%
11:00 +32°C° 0 mm 4 mps 748 mmHg 69%
12:00 +33°C° 0 mm 4 mps 748 mmHg 65%
13:00 +34°C° 0 mm 4 mps 748 mmHg 61%
14:00 +34°C° 0 mm 4 mps 748 mmHg 61%
15:00 +35°C° 0 mm 4 mps 748 mmHg 60%
16:00 +35°C° 0 mm 4 mps 748 mmHg 59%
17:00 +34°C° 0 mm 4 mps 748 mmHg 65%
18:00 +33°C° 0 mm 4 mps 747 mmHg 71%
19:00 +32°C° 0 mm 4 mps 747 mmHg 76%
20:00 +29°C° 0 mm 4 mps 747 mmHg 81%
21:00 +28°C° 0 mm 3 mps 747 mmHg 85%
22:00 +26°C° 0 mm 3 mps 747 mmHg 89%
23:00 +26°C° 0 mm 3 mps 747 mmHg 90%

Tomorrow, 15 July, Wednesday

Time Temperature Precipitation Wind Pressure Humidity
00:00 +25°C° 0 mm 3 mps 747 mmHg 91%
01:00 +25°C° 0 mm 3 mps 747 mmHg 91%
02:00 +24°C° 0 mm 3 mps 747 mmHg 89%
03:00 +24°C° 0 mm 3 mps 747 mmHg 88%
04:00 +22°C° 0 mm 3 mps 747 mmHg 86%
05:00 +24°C° 0 mm 3 mps 747 mmHg 83%
06:00 +25°C° 0 mm 3 mps 747 mmHg 79%
07:00 +26°C° 0 mm 3 mps 747 mmHg 76%
08:00 +27°C° 0 mm 4 mps 747 mmHg 71%
09:00 +29°C° 0 mm 4 mps 747 mmHg 66%
10:00 +30°C° 0 mm 4 mps 747 mmHg 62%
11:00 +32°C° 0 mm 5 mps 747 mmHg 59%
12:00 +32°C° 0 mm 5 mps 747 mmHg 57%
13:00 +33°C° 0 mm 6 mps 747 mmHg 54%
14:00 +33°C° 0 mm 6 mps 747 mmHg 56%
15:00 +33°C° 0 mm 5 mps 747 mmHg 57%
16:00 +33°C° 0 mm 5 mps 747 mmHg 59%
17:00 +32°C° 0 mm 4 mps 746 mmHg 63%
18:00 +31°C° 0 mm 3 mps 746 mmHg 66%
19:00 +30°C° 0 mm 2 mps 746 mmHg 70%
20:00 +28°C° 0 mm 2 mps 746 mmHg 73%
21:00 +27°C° 0 mm 2 mps 746 mmHg 76%
22:00 +25°C° 0 mm 1 mps 746 mmHg 79%
23:00 +24°C° 0 mm 1 mps 746 mmHg 80%

Day after tomorrow, 16 July, Thursday

Time Temperature Precipitation Wind Pressure Humidity
00:00 +24°C° 0 mm 1 mps 746 mmHg 81%
01:00 +21°C° 0 mm 0 mps 746 mmHg 82%
02:00 +23°C° 0 mm 1 mps 745 mmHg 81%
03:00 +23°C° 0 mm 1 mps 745 mmHg 80%
04:00 +23°C° 0 mm 1 mps 745 mmHg 79%
05:00 +24°C° 0 mm 2 mps 745 mmHg 79%
06:00 +24°C° 0 mm 2 mps 745 mmHg 79%
07:00 +25°C° 0 mm 2 mps 745 mmHg 80%
08:00 +26°C° 0 mm 2 mps 745 mmHg 76%
09:00 +27°C° 0 mm 2 mps 745 mmHg 72%
10:00 +28°C° 0 mm 2 mps 746 mmHg 68%
11:00 +29°C° 0 mm 2 mps 745 mmHg 65%
12:00 +30°C° 0 mm 2 mps 745 mmHg 63%
13:00 +30°C° 0 mm 2 mps 745 mmHg 61%
14:00 +30°C° 0 mm 2 mps 745 mmHg 60%
15:00 +31°C° 0 mm 1 mps 745 mmHg 59%
16:00 +31°C° 0 mm 1 mps 745 mmHg 58%
17:00 +30°C° 0.2 mm 1 mps 745 mmHg 65%
18:00 +29°C° 0.2 mm 2 mps 745 mmHg 71%
19:00 +28°C° 0.2 mm 2 mps 744 mmHg 77%
20:00 +26°C° 1.6 mm 2 mps 744 mmHg 82%
21:00 +24°C° 1.6 mm 2 mps 745 mmHg 86%
22:00 +23°C° 1.6 mm 1 mps 745 mmHg 91%
23:00 +22°C° 0.6 mm 1 mps 745 mmHg 91%

17 July, Friday

Time Temperature Precipitation Wind Pressure Humidity
00:00 +22°C° 0.6 mm 1 mps 745 mmHg 92%
01:00 +21°C° 0.6 mm 1 mps 745 mmHg 93%
02:00 +21°C° 0.2 mm 1 mps 745 mmHg 93%
03:00 +21°C° 0.2 mm 1 mps 745 mmHg 93%
04:00 +20°C° 0.2 mm 1 mps 745 mmHg 94%
05:00 +21°C° 0 mm 1 mps 745 mmHg 92%
06:00 +21°C° 0 mm 1 mps 745 mmHg 91%
07:00 +22°C° 0 mm 1 mps 745 mmHg 90%
08:00 +23°C° 0 mm 1 mps 745 mmHg 86%
09:00 +24°C° 0 mm 2 mps 745 mmHg 81%
10:00 +25°C° 0 mm 2 mps 745 mmHg 77%
11:00 +26°C° 0.3 mm 2 mps 745 mmHg 74%
12:00 +26°C° 0.3 mm 2 mps 745 mmHg 70%
13:00 +27°C° 0.3 mm 2 mps 745 mmHg 66%
14:00 +27°C° 0.5 mm 2 mps 745 mmHg 68%
15:00 +26°C° 0.5 mm 3 mps 745 mmHg 69%
16:00 +26°C° 0.5 mm 3 mps 745 mmHg 70%
17:00 +26°C° 0.5 mm 3 mps 745 mmHg 72%
18:00 +25°C° 0.5 mm 2 mps 745 mmHg 74%
19:00 +25°C° 0.5 mm 2 mps 745 mmHg 76%
20:00 +23°C° 0 mm 2 mps 745 mmHg 79%
21:00 +21°C° 0 mm 3 mps 745 mmHg 81%
22:00 +19°C° 0 mm 3 mps 745 mmHg 84%
23:00 +18°C° 0 mm 2 mps 745 mmHg 86%

18 July, Saturday

Time Temperature Precipitation Wind Pressure Humidity
00:00 +17°C° 0 mm 2 mps 745 mmHg 87%
01:00 +18°C° 0 mm 1 mps 745 mmHg 89%
02:00 +16°C° 0 mm 1 mps 745 mmHg 90%
03:00 +16°C° 0 mm 1 mps 745 mmHg 90%
04:00 +15°C° 0 mm 1 mps 745 mmHg 91%
05:00 +16°C° 0 mm 1 mps 745 mmHg 88%
06:00 +18°C° 0 mm 1 mps 746 mmHg 86%
07:00 +19°C° 0 mm 1 mps 746 mmHg 83%
08:00 +21°C° 0 mm 1 mps 746 mmHg 78%
09:00 +21°C° 0 mm 2 mps 746 mmHg 72%
10:00 +23°C° 0 mm 2 mps 746 mmHg 67%
11:00 +24°C° 0 mm 2 mps 746 mmHg 64%
12:00 +25°C° 0 mm 2 mps 745 mmHg 60%
13:00 +25°C° 0 mm 2 mps 745 mmHg 57%
14:00 +26°C° 0 mm 2 mps 745 mmHg 57%
15:00 +26°C° 0 mm 2 mps 745 mmHg 56%
16:00 +26°C° 0 mm 2 mps 745 mmHg 56%
17:00 +25°C° 0 mm 2 mps 745 mmHg 63%
18:00 +24°C° 0 mm 2 mps 745 mmHg 69%
19:00 +24°C° 0 mm 3 mps 744 mmHg 75%
20:00 +21°C° 0 mm 3 mps 744 mmHg 79%
21:00 +20°C° 0 mm 3 mps 744 mmHg 83%
22:00 +18°C° 0 mm 2 mps 744 mmHg 87%
23:00 +17°C° 0 mm 2 mps 744 mmHg 89%

19 July, Sunday

Time Temperature Precipitation Wind Pressure Humidity
00:00 +17°C° 0 mm 2 mps 744 mmHg 91%
01:00 +16°C° 0 mm 3 mps 744 mmHg 93%
02:00 +16°C° 0 mm 2 mps 744 mmHg 94%
03:00 +16°C° 0 mm 2 mps 744 mmHg 95%
04:00 +15°C° 0 mm 2 mps 744 mmHg 96%
05:00 +16°C° 0 mm 3 mps 744 mmHg 93%
06:00 +17°C° 0 mm 3 mps 744 mmHg 91%
07:00 +17°C° 0 mm 3 mps 744 mmHg 88%
08:00 +19°C° 0 mm 3 mps 744 mmHg 82%
09:00 +20°C° 0 mm 3 mps 744 mmHg 77%
10:00 +21°C° 0 mm 3 mps 744 mmHg 71%
11:00 +22°C° 0 mm 3 mps 743 mmHg 67%
12:00 +24°C° 0 mm 3 mps 743 mmHg 64%
13:00 +25°C° 0 mm 4 mps 743 mmHg 60%
14:00 +25°C° 0 mm 3 mps 743 mmHg 60%
15:00 +25°C° 0 mm 3 mps 743 mmHg 59%
16:00 +25°C° 0 mm 3 mps 742 mmHg 59%
17:00 +24°C° 0.1 mm 3 mps 742 mmHg 64%
18:00 +24°C° 0.1 mm 3 mps 742 mmHg 70%
19:00 +22°C° 0.1 mm 3 mps 742 mmHg 75%
20:00 +20°C° 0 mm 3 mps 741 mmHg 81%
21:00 +19°C° 0 mm 3 mps 741 mmHg 86%
22:00 +17°C° 0 mm 3 mps 741 mmHg 92%
23:00 +17°C° 0 mm 3 mps 741 mmHg 93%
Show more